Year,Month,Day,Hour,Minute,Value (Times are PST for temperature in C)
2014,06,22,00,00,11.50
2014,06,22,00,01,11.50
2014,06,22,00,02,11.40
2014,06,22,00,03,11.40
2014,06,22,00,04,11.40
2014,06,22,00,05,11.30
2014,06,22,00,06,11.30
2014,06,22,00,07,11.30
2014,06,22,00,08,11.30
2014,06,22,00,09,11.20
2014,06,22,00,10,11.20
2014,06,22,00,11,11.20
2014,06,22,00,12,11.20
2014,06,22,00,13,11.20
2014,06,22,00,14,11.20
2014,06,22,00,15,11.20
2014,06,22,00,16,11.10
2014,06,22,00,17,11.10
2014,06,22,00,18,11.10
2014,06,22,00,19,11.10
2014,06,22,00,20,11.10
2014,06,22,00,21,11.10
2014,06,22,00,22,11.10
2014,06,22,00,23,11.10
2014,06,22,00,24,11.10
2014,06,22,00,25,11.10
2014,06,22,00,26,11.00
2014,06,22,00,27,11.00
2014,06,22,00,28,11.00
2014,06,22,00,29,11.00
2014,06,22,00,30,11.00
2014,06,22,00,31,10.90
2014,06,22,00,32,10.90
2014,06,22,00,33,10.90
2014,06,22,00,34,10.90
2014,06,22,00,35,10.90
2014,06,22,00,36,10.80
2014,06,22,00,37,10.80
2014,06,22,00,38,10.80
2014,06,22,00,39,10.80
2014,06,22,00,40,10.80
2014,06,22,00,41,10.80
2014,06,22,00,42,10.70
2014,06,22,00,43,10.70
2014,06,22,00,44,10.70
2014,06,22,00,45,10.70
2014,06,22,00,46,10.70
2014,06,22,00,47,10.60
2014,06,22,00,48,10.60
2014,06,22,00,49,10.60
2014,06,22,00,50,10.60
2014,06,22,00,51,10.60
2014,06,22,00,52,10.60
2014,06,22,00,53,10.60
2014,06,22,00,54,10.50
2014,06,22,00,55,10.50
2014,06,22,00,56,10.50
2014,06,22,00,57,10.50
2014,06,22,00,58,10.40
2014,06,22,00,59,10.40
2014,06,22,01,00,10.40
2014,06,22,01,01,10.40
2014,06,22,01,02,10.40
2014,06,22,01,03,10.40
2014,06,22,01,04,10.40
2014,06,22,01,05,10.40
2014,06,22,01,06,10.40
2014,06,22,01,07,10.40
2014,06,22,01,08,10.40
2014,06,22,01,09,10.40
2014,06,22,01,10,10.40
2014,06,22,01,11,10.40
2014,06,22,01,12,10.40
2014,06,22,01,13,10.40
2014,06,22,01,14,10.40
2014,06,22,01,15,10.40
2014,06,22,01,16,10.40
2014,06,22,01,17,10.40
2014,06,22,01,18,10.30
2014,06,22,01,19,10.30
2014,06,22,01,20,10.30
2014,06,22,01,21,10.30
2014,06,22,01,22,10.30
2014,06,22,01,23,10.30
2014,06,22,01,24,10.30
2014,06,22,01,25,10.30
2014,06,22,01,26,10.30
2014,06,22,01,27,10.30
2014,06,22,01,28,10.30
2014,06,22,01,29,10.30
2014,06,22,01,30,10.30
2014,06,22,01,31,10.30
2014,06,22,01,32,10.30
2014,06,22,01,33,10.30
2014,06,22,01,34,10.30
2014,06,22,01,35,10.30
2014,06,22,01,36,10.30
2014,06,22,01,37,10.30
2014,06,22,01,38,10.30
2014,06,22,01,39,10.30
2014,06,22,01,40,10.30
2014,06,22,01,41,10.30
2014,06,22,01,42,10.20
2014,06,22,01,43,10.20
2014,06,22,01,44,10.20
2014,06,22,01,45,10.20
2014,06,22,01,46,10.20
2014,06,22,01,47,10.20
2014,06,22,01,48,10.20
2014,06,22,01,49,10.10
2014,06,22,01,50,10.20
2014,06,22,01,51,10.10
2014,06,22,01,52,10.10
2014,06,22,01,53,10.10
2014,06,22,01,54,10.10
2014,06,22,01,55,10.10
2014,06,22,01,56,10.10
2014,06,22,01,57,10.10
2014,06,22,01,58,10.10
2014,06,22,01,59,10.10
2014,06,22,02,00,10.10
2014,06,22,02,01,10.10
2014,06,22,02,02,10.10
2014,06,22,02,03,10.10
2014,06,22,02,04,10.10
2014,06,22,02,05,10.10
2014,06,22,02,06,10.10
2014,06,22,02,07,10.10
2014,06,22,02,08,10.10
2014,06,22,02,09,10.00
2014,06,22,02,10,10.00
2014,06,22,02,11,10.00
2014,06,22,02,12,10.00
2014,06,22,02,13,9.90
2014,06,22,02,14,9.90
2014,06,22,02,15,9.90
2014,06,22,02,16,9.90
2014,06,22,02,17,9.90
2014,06,22,02,18,9.90
2014,06,22,02,19,9.80
2014,06,22,02,20,9.80
2014,06,22,02,21,9.80
2014,06,22,02,22,9.80
2014,06,22,02,23,9.80
2014,06,22,02,24,9.80
2014,06,22,02,25,9.80
2014,06,22,02,26,9.80
2014,06,22,02,27,9.80
2014,06,22,02,28,9.70
2014,06,22,02,29,9.70
2014,06,22,02,30,9.70
2014,06,22,02,31,9.70
2014,06,22,02,32,9.70
2014,06,22,02,33,9.70
2014,06,22,02,34,9.60
2014,06,22,02,35,9.60
2014,06,22,02,36,9.60
2014,06,22,02,37,9.60
2014,06,22,02,38,9.60
2014,06,22,02,39,9.60
2014,06,22,02,40,9.60
2014,06,22,02,41,9.60
2014,06,22,02,42,9.60
2014,06,22,02,43,9.60
2014,06,22,02,44,9.50
2014,06,22,02,45,9.50
2014,06,22,02,46,9.50
2014,06,22,02,47,9.50
2014,06,22,02,48,9.50
2014,06,22,02,49,9.50
2014,06,22,02,50,9.40
2014,06,22,02,51,9.40
2014,06,22,02,52,9.40
2014,06,22,02,53,9.40
2014,06,22,02,54,9.40
2014,06,22,02,55,9.40
2014,06,22,02,56,9.30
2014,06,22,02,57,9.30
2014,06,22,02,58,9.30
2014,06,22,02,59,9.30
2014,06,22,03,00,9.20
2014,06,22,03,01,9.20
2014,06,22,03,02,9.20
2014,06,22,03,03,9.20
2014,06,22,03,06,9.10
2014,06,22,03,07,9.10
2014,06,22,03,08,9.10
2014,06,22,03,09,9.10
2014,06,22,03,10,9.00
2014,06,22,03,11,9.00
2014,06,22,03,12,9.00
2014,06,22,03,13,9.00
2014,06,22,03,14,8.90
2014,06,22,03,15,8.90
2014,06,22,03,16,8.90
2014,06,22,03,17,8.90
2014,06,22,03,18,8.90
2014,06,22,03,19,8.80
2014,06,22,03,20,8.80
2014,06,22,03,21,8.80
2014,06,22,03,22,8.80
2014,06,22,03,23,8.80
2014,06,22,03,24,8.80
2014,06,22,03,25,8.80
2014,06,22,03,26,8.80
2014,06,22,03,27,8.80
2014,06,22,03,28,8.80
2014,06,22,03,29,8.80
2014,06,22,03,30,8.80
2014,06,22,03,31,8.80
2014,06,22,03,32,8.80
2014,06,22,03,33,8.90
2014,06,22,03,34,8.90
2014,06,22,03,35,8.90
2014,06,22,03,36,8.90
2014,06,22,03,37,8.90
2014,06,22,03,38,8.90
2014,06,22,03,39,8.80
2014,06,22,03,40,8.80
2014,06,22,03,41,8.80
2014,06,22,03,42,8.80
2014,06,22,03,43,8.80
2014,06,22,03,44,8.80
2014,06,22,03,45,8.80
2014,06,22,03,46,8.80
2014,06,22,03,47,8.80
2014,06,22,03,48,8.80
2014,06,22,03,49,8.80
2014,06,22,03,50,8.80
2014,06,22,03,51,8.70
2014,06,22,03,52,8.70
2014,06,22,03,53,8.70
2014,06,22,03,54,8.70
2014,06,22,03,55,8.70
2014,06,22,03,56,8.70
2014,06,22,03,57,8.70
2014,06,22,03,58,8.70
2014,06,22,03,59,8.60
2014,06,22,04,00,8.60
2014,06,22,04,01,8.60
2014,06,22,04,02,8.60
2014,06,22,04,03,8.60
2014,06,22,04,04,8.60
2014,06,22,04,05,8.60
2014,06,22,04,06,8.60
2014,06,22,04,07,8.60
2014,06,22,04,08,8.60
2014,06,22,04,09,8.50
2014,06,22,04,10,8.50
2014,06,22,04,11,8.50
2014,06,22,04,12,8.50
2014,06,22,04,13,8.40
2014,06,22,04,14,8.40
2014,06,22,04,15,8.40
2014,06,22,04,16,8.40
2014,06,22,04,17,8.40
2014,06,22,04,18,8.40
2014,06,22,04,19,8.30
2014,06,22,04,20,8.30
2014,06,22,04,21,8.30
2014,06,22,04,22,8.30
2014,06,22,04,23,8.30
2014,06,22,04,24,8.30
2014,06,22,04,25,8.30
2014,06,22,04,26,8.30
2014,06,22,04,27,8.30
2014,06,22,04,28,8.30
2014,06,22,04,29,8.30
2014,06,22,04,30,8.30
2014,06,22,04,31,8.30
2014,06,22,04,32,8.30
2014,06,22,04,33,8.30
2014,06,22,04,34,8.30
2014,06,22,04,35,8.30
2014,06,22,04,36,8.30
2014,06,22,04,37,8.30
2014,06,22,04,38,8.30
2014,06,22,04,39,8.30
2014,06,22,04,40,8.30
2014,06,22,04,41,8.30
2014,06,22,04,42,8.30
2014,06,22,04,43,8.20
2014,06,22,04,44,8.20
2014,06,22,04,45,8.20
2014,06,22,04,46,8.20
2014,06,22,04,47,8.20
2014,06,22,04,48,8.20
2014,06,22,04,49,8.10
2014,06,22,04,50,8.10
2014,06,22,04,51,8.10
2014,06,22,04,52,8.10
2014,06,22,04,53,8.10
2014,06,22,04,54,8.00
2014,06,22,04,55,8.00
2014,06,22,04,56,8.00
2014,06,22,04,57,7.90
2014,06,22,04,58,7.90
2014,06,22,04,59,7.90
2014,06,22,05,00,7.90
2014,06,22,05,01,7.90
2014,06,22,05,02,7.90
2014,06,22,05,03,7.90
2014,06,22,05,04,7.80
2014,06,22,05,05,7.80
2014,06,22,05,06,7.80
2014,06,22,05,07,7.80
2014,06,22,05,08,7.80
2014,06,22,05,09,7.80
2014,06,22,05,10,7.80
2014,06,22,05,11,7.80
2014,06,22,05,12,7.80
2014,06,22,05,13,7.80
2014,06,22,05,14,7.80
2014,06,22,05,15,7.80
2014,06,22,05,16,7.80
2014,06,22,05,17,7.80
2014,06,22,05,18,7.80
2014,06,22,05,19,7.80
2014,06,22,05,20,7.80
2014,06,22,05,21,7.80
2014,06,22,05,22,7.80
2014,06,22,05,23,7.70
2014,06,22,05,24,7.70
2014,06,22,05,25,7.70
2014,06,22,05,26,7.70
2014,06,22,05,27,7.70
2014,06,22,05,28,7.70
2014,06,22,05,29,7.60
2014,06,22,05,30,7.60
2014,06,22,05,31,7.60
2014,06,22,05,32,7.60
2014,06,22,05,33,7.60
2014,06,22,05,34,7.60
2014,06,22,05,35,7.60
2014,06,22,05,36,7.60
2014,06,22,05,37,7.60
2014,06,22,05,38,7.60
2014,06,22,05,39,7.70
2014,06,22,05,40,7.70
2014,06,22,05,41,7.70
2014,06,22,05,42,7.70
2014,06,22,05,43,7.70
2014,06,22,05,44,7.70
2014,06,22,05,45,7.70
2014,06,22,05,46,7.70
2014,06,22,05,47,7.70
2014,06,22,05,48,7.70
2014,06,22,05,49,7.70
2014,06,22,05,50,7.70
2014,06,22,05,51,7.70
2014,06,22,05,52,7.70
2014,06,22,05,53,7.70
2014,06,22,05,54,7.70
2014,06,22,05,55,7.70
2014,06,22,05,56,7.70
2014,06,22,05,57,7.70
2014,06,22,05,58,7.70
2014,06,22,05,59,7.70
2014,06,22,06,00,7.70
2014,06,22,06,01,7.70
2014,06,22,06,02,7.70
2014,06,22,06,03,7.70
2014,06,22,06,04,7.80
2014,06,22,06,05,7.80
2014,06,22,06,06,7.80
2014,06,22,06,07,7.80
2014,06,22,06,08,7.90
2014,06,22,06,09,7.90
2014,06,22,06,10,7.90
2014,06,22,06,11,8.00
2014,06,22,06,12,8.00
2014,06,22,06,13,8.10
2014,06,22,06,14,8.10
2014,06,22,06,15,8.10
2014,06,22,06,16,8.20
2014,06,22,06,17,8.20
2014,06,22,06,18,8.20
2014,06,22,06,19,8.20
2014,06,22,06,20,8.30
2014,06,22,06,21,8.30
2014,06,22,06,22,8.30
2014,06,22,06,23,8.40
2014,06,22,06,24,8.40
2014,06,22,06,25,8.50
2014,06,22,06,26,8.50
2014,06,22,06,27,8.60
2014,06,22,06,28,8.60
2014,06,22,06,29,8.70
2014,06,22,06,30,8.80
2014,06,22,06,31,8.80
2014,06,22,06,32,8.90
2014,06,22,06,33,8.90
2014,06,22,06,34,9.00
2014,06,22,06,35,9.10
2014,06,22,06,36,9.10
2014,06,22,06,37,9.20
2014,06,22,06,38,9.30
2014,06,22,06,39,9.30
2014,06,22,06,40,9.40
2014,06,22,06,41,9.50
2014,06,22,06,42,9.50
2014,06,22,06,43,9.60
2014,06,22,06,44,9.60
2014,06,22,06,45,9.70
2014,06,22,06,46,9.70
2014,06,22,06,47,9.80
2014,06,22,06,48,9.80
2014,06,22,06,49,9.80
2014,06,22,06,50,9.90
2014,06,22,06,51,9.90
2014,06,22,06,52,10.00
2014,06,22,06,53,10.10
2014,06,22,06,54,10.20
2014,06,22,06,55,10.30
2014,06,22,06,56,10.40
2014,06,22,06,57,10.40
2014,06,22,06,58,10.50
2014,06,22,06,59,10.60
2014,06,22,07,00,10.60
2014,06,22,07,01,10.70
2014,06,22,07,02,10.70
2014,06,22,07,03,10.80
2014,06,22,07,04,11.00
2014,06,22,07,05,11.10
2014,06,22,07,06,11.20
2014,06,22,07,07,11.30
2014,06,22,07,08,11.40
2014,06,22,07,09,11.60
2014,06,22,07,10,11.70
2014,06,22,07,11,11.80
2014,06,22,07,12,11.90
2014,06,22,07,13,12.00
2014,06,22,07,14,12.10
2014,06,22,07,15,12.20
2014,06,22,07,16,12.40
2014,06,22,07,17,12.60
2014,06,22,07,18,12.70
2014,06,22,07,19,12.80
2014,06,22,07,20,12.90
2014,06,22,07,21,13.00
2014,06,22,07,22,13.10
2014,06,22,07,23,13.20
2014,06,22,07,24,13.30
2014,06,22,07,25,13.40
2014,06,22,07,26,13.60
2014,06,22,07,27,13.70
2014,06,22,07,28,13.80
2014,06,22,07,29,14.00
2014,06,22,07,30,14.10
2014,06,22,07,31,14.20
2014,06,22,07,32,14.30
2014,06,22,07,33,14.50
2014,06,22,07,34,14.70
2014,06,22,07,35,14.90
2014,06,22,07,36,15.00
2014,06,22,07,37,15.10
2014,06,22,07,38,15.30
2014,06,22,07,39,15.40
2014,06,22,07,40,15.60
2014,06,22,07,41,15.70
2014,06,22,07,42,15.90
2014,06,22,07,43,16.00
2014,06,22,07,44,16.10
2014,06,22,07,45,16.20
2014,06,22,07,46,16.20
2014,06,22,07,47,16.30
2014,06,22,07,48,16.40
2014,06,22,07,49,16.50
2014,06,22,07,50,16.50
2014,06,22,07,51,16.70
2014,06,22,07,52,16.80
2014,06,22,07,53,16.80
2014,06,22,07,54,16.90
2014,06,22,07,55,17.00
2014,06,22,07,56,17.00
2014,06,22,07,57,17.10
2014,06,22,07,58,17.20
2014,06,22,07,59,17.20
2014,06,22,08,00,17.30
2014,06,22,08,01,17.30
2014,06,22,08,02,17.40
2014,06,22,08,03,17.40
2014,06,22,08,04,17.40
2014,06,22,08,05,17.30
2014,06,22,08,06,17.30
2014,06,22,08,07,17.30
2014,06,22,08,08,17.20
2014,06,22,08,09,17.20
2014,06,22,08,10,17.10
2014,06,22,08,11,17.10
2014,06,22,08,12,17.10
2014,06,22,08,13,17.00
2014,06,22,08,14,17.00
2014,06,22,08,15,17.00
2014,06,22,08,16,17.00
2014,06,22,08,17,17.10
2014,06,22,08,18,17.10
2014,06,22,08,19,17.10
2014,06,22,08,20,17.20
2014,06,22,08,21,17.30
2014,06,22,08,22,17.20
2014,06,22,08,23,17.20
2014,06,22,08,24,17.20
2014,06,22,08,25,17.20
2014,06,22,08,26,17.20
2014,06,22,08,27,17.20
2014,06,22,08,28,17.20
2014,06,22,08,29,17.20
2014,06,22,08,30,17.20
2014,06,22,08,31,17.20
2014,06,22,08,32,17.20
2014,06,22,08,33,17.30
2014,06,22,08,34,17.30
2014,06,22,08,35,17.30
2014,06,22,08,36,17.40
2014,06,22,08,37,17.50
2014,06,22,08,38,17.60
2014,06,22,08,39,17.70
2014,06,22,08,40,17.70
2014,06,22,08,41,17.80
2014,06,22,08,42,17.80
2014,06,22,08,43,17.80
2014,06,22,08,44,17.80
2014,06,22,08,45,17.80
2014,06,22,08,46,17.70
2014,06,22,08,47,17.70
2014,06,22,08,48,17.70
2014,06,22,08,49,17.70
2014,06,22,08,50,17.60
2014,06,22,08,51,17.60
2014,06,22,08,52,17.70
2014,06,22,08,53,17.70
2014,06,22,08,54,17.70
2014,06,22,08,55,17.70
2014,06,22,08,56,17.60
2014,06,22,08,57,17.60
2014,06,22,08,58,17.60
2014,06,22,08,59,17.60
2014,06,22,09,00,17.60
2014,06,22,09,01,17.60
2014,06,22,09,02,17.60
2014,06,22,09,03,17.60
2014,06,22,09,04,17.70
2014,06,22,09,05,17.70
2014,06,22,09,06,17.80
2014,06,22,09,07,17.80
2014,06,22,09,08,17.90
2014,06,22,09,09,17.90
2014,06,22,09,10,17.90
2014,06,22,09,11,17.90
2014,06,22,09,12,17.90
2014,06,22,09,13,17.80
2014,06,22,09,14,17.80
2014,06,22,09,15,17.70
2014,06,22,09,16,17.70
2014,06,22,09,17,17.70
2014,06,22,09,18,17.80
2014,06,22,09,19,17.80
2014,06,22,09,20,17.90
2014,06,22,09,21,18.00
2014,06,22,09,22,18.00
2014,06,22,09,23,18.10
2014,06,22,09,24,18.10
2014,06,22,09,25,18.20
2014,06,22,09,26,18.20
2014,06,22,09,27,18.20
2014,06,22,09,28,18.20
2014,06,22,09,29,18.20
2014,06,22,09,30,18.10
2014,06,22,09,31,18.00
2014,06,22,09,32,18.00
2014,06,22,09,33,18.00
2014,06,22,09,34,18.00
2014,06,22,09,35,18.00
2014,06,22,09,36,18.00
2014,06,22,09,37,18.00
2014,06,22,09,38,18.10
2014,06,22,09,39,18.10
2014,06,22,09,40,18.20
2014,06,22,09,41,18.20
2014,06,22,09,42,18.20
2014,06,22,09,43,18.20
2014,06,22,09,44,18.20
2014,06,22,09,45,18.20
2014,06,22,09,46,18.20
2014,06,22,09,47,18.30
2014,06,22,09,48,18.30
2014,06,22,09,49,18.30
2014,06,22,09,50,18.30
2014,06,22,09,51,18.30
2014,06,22,09,52,18.40
2014,06,22,09,53,18.50
2014,06,22,09,54,18.50
2014,06,22,09,55,18.60
2014,06,22,09,56,18.60
2014,06,22,09,57,18.60
2014,06,22,09,58,18.60
2014,06,22,09,59,18.50
2014,06,22,10,00,18.40
2014,06,22,10,01,18.40
2014,06,22,10,02,18.40
2014,06,22,10,03,18.40
2014,06,22,10,04,18.50
2014,06,22,10,05,18.50
2014,06,22,10,06,18.50
2014,06,22,10,07,18.60
2014,06,22,10,08,18.60
2014,06,22,10,09,18.60
2014,06,22,10,10,18.50
2014,06,22,10,11,18.50
2014,06,22,10,12,18.50
2014,06,22,10,13,18.50
2014,06,22,10,14,18.40
2014,06,22,10,15,18.40
2014,06,22,10,16,18.40
2014,06,22,10,17,18.40
2014,06,22,10,18,18.50
2014,06,22,10,19,18.50
2014,06,22,10,20,18.60
2014,06,22,10,21,18.60
2014,06,22,10,22,18.60
2014,06,22,10,23,18.70
2014,06,22,10,24,18.70
2014,06,22,10,25,18.70
2014,06,22,10,26,18.70
2014,06,22,10,27,18.70
2014,06,22,10,28,18.70
2014,06,22,10,29,18.60
2014,06,22,10,30,18.70
2014,06,22,10,31,18.70
2014,06,22,10,32,18.70
2014,06,22,10,33,18.60
2014,06,22,10,34,18.50
2014,06,22,10,35,18.50
2014,06,22,10,36,18.40
2014,06,22,10,37,18.40
2014,06,22,10,38,18.30
2014,06,22,10,39,18.30
2014,06,22,10,40,18.30
2014,06,22,10,41,18.20
2014,06,22,10,42,18.20
2014,06,22,10,43,18.20
2014,06,22,10,44,18.10
2014,06,22,10,45,18.00
2014,06,22,10,46,18.00
2014,06,22,10,47,18.00
2014,06,22,10,48,18.10
2014,06,22,10,49,18.10
2014,06,22,10,50,18.10
2014,06,22,10,51,18.10
2014,06,22,10,52,18.10
2014,06,22,10,53,18.20
2014,06,22,10,54,18.20
2014,06,22,10,55,18.30
2014,06,22,10,56,18.40
2014,06,22,10,57,18.40
2014,06,22,10,58,18.30
2014,06,22,10,59,18.30
2014,06,22,11,00,18.30
2014,06,22,11,01,18.30
2014,06,22,11,02,18.30
2014,06,22,11,03,18.30
2014,06,22,11,04,18.40
2014,06,22,11,05,18.50
2014,06,22,11,06,18.50
2014,06,22,11,07,18.50
2014,06,22,11,08,18.50
2014,06,22,11,09,18.50
2014,06,22,11,10,18.50
2014,06,22,11,11,18.60
2014,06,22,11,12,18.60
2014,06,22,11,13,18.60
2014,06,22,11,14,18.70
2014,06,22,11,15,18.80
2014,06,22,11,16,19.00
2014,06,22,11,17,19.10
2014,06,22,11,18,19.10
2014,06,22,11,19,19.10
2014,06,22,11,20,19.00
2014,06,22,11,21,18.90
2014,06,22,11,22,18.90
2014,06,22,11,23,18.90
2014,06,22,11,24,18.90
2014,06,22,11,25,18.90
2014,06,22,11,26,18.90
2014,06,22,11,27,18.90
2014,06,22,11,28,18.90
2014,06,22,11,29,18.80
2014,06,22,11,30,18.80
2014,06,22,11,31,18.70
2014,06,22,11,32,18.70
2014,06,22,11,33,18.70
2014,06,22,11,34,18.60
2014,06,22,11,35,18.40
2014,06,22,11,36,18.20
2014,06,22,11,37,18.20
2014,06,22,11,38,18.10
2014,06,22,11,39,18.00
2014,06,22,11,40,17.90
2014,06,22,11,41,17.90
2014,06,22,11,42,18.00
2014,06,22,11,43,18.00
2014,06,22,11,44,18.00
2014,06,22,11,45,18.10
2014,06,22,11,46,18.10
2014,06,22,11,47,18.20
2014,06,22,11,48,18.30
2014,06,22,11,49,18.40
2014,06,22,11,50,18.50
2014,06,22,11,51,18.50
2014,06,22,11,52,18.50
2014,06,22,11,53,18.60
2014,06,22,11,54,18.70
2014,06,22,11,55,18.80
2014,06,22,11,56,18.90
2014,06,22,11,57,19.10
2014,06,22,11,58,19.20
2014,06,22,11,59,19.20
2014,06,22,12,00,19.20
2014,06,22,12,01,19.20
2014,06,22,12,02,19.20
2014,06,22,12,03,19.30
2014,06,22,12,04,19.30
2014,06,22,12,05,19.30
2014,06,22,12,06,19.40
2014,06,22,12,07,19.50
2014,06,22,12,08,19.70
2014,06,22,12,09,19.80
2014,06,22,12,10,20.00
2014,06,22,12,11,20.10
2014,06,22,12,12,20.40
2014,06,22,12,13,20.50
2014,06,22,12,14,20.70
2014,06,22,12,15,20.90
2014,06,22,12,16,21.00
2014,06,22,12,17,21.00
2014,06,22,12,18,21.00
2014,06,22,12,19,21.00
2014,06,22,12,20,21.00
2014,06,22,12,21,21.00
2014,06,22,12,22,21.00
2014,06,22,12,23,20.70
2014,06,22,12,24,20.50
2014,06,22,12,25,20.40
2014,06,22,12,26,20.40
2014,06,22,12,27,20.40
2014,06,22,12,28,20.50
2014,06,22,12,29,20.60
2014,06,22,12,30,20.60
2014,06,22,12,31,20.60
2014,06,22,12,32,20.50
2014,06,22,12,33,20.50
2014,06,22,12,34,20.60
2014,06,22,12,35,20.60
2014,06,22,12,36,20.70
2014,06,22,12,37,20.70
2014,06,22,12,38,20.70
2014,06,22,12,39,20.80
2014,06,22,12,40,20.80
2014,06,22,12,41,20.90
2014,06,22,12,42,20.80
2014,06,22,12,43,20.50
2014,06,22,12,44,20.30
2014,06,22,12,45,20.10
2014,06,22,12,46,20.10
2014,06,22,12,47,20.00
2014,06,22,12,48,20.10
2014,06,22,12,49,20.10
2014,06,22,12,50,20.10
2014,06,22,12,51,20.10
2014,06,22,12,52,20.10
2014,06,22,12,53,20.20
2014,06,22,12,54,20.20
2014,06,22,12,55,20.30
2014,06,22,12,56,20.40
2014,06,22,12,57,20.50
2014,06,22,12,58,20.60
2014,06,22,12,59,20.80
2014,06,22,13,00,20.90
2014,06,22,13,01,21.10
2014,06,22,13,02,21.10
2014,06,22,13,03,21.10
2014,06,22,13,04,21.10
2014,06,22,13,05,21.20
2014,06,22,13,06,21.30
2014,06,22,13,07,21.50
2014,06,22,13,08,21.50
2014,06,22,13,09,21.30
2014,06,22,13,10,21.20
2014,06,22,13,11,21.20
2014,06,22,13,12,21.20
2014,06,22,13,13,21.10
2014,06,22,13,14,21.00
2014,06,22,13,15,20.90
2014,06,22,13,16,20.70
2014,06,22,13,17,20.60
2014,06,22,13,18,20.60
2014,06,22,13,19,20.50
2014,06,22,13,20,20.50
2014,06,22,13,21,20.50
2014,06,22,13,22,20.40
2014,06,22,13,23,20.40
2014,06,22,13,24,20.40
2014,06,22,13,25,20.40
2014,06,22,13,26,20.50
2014,06,22,13,27,20.70
2014,06,22,13,28,20.90
2014,06,22,13,29,20.90
2014,06,22,13,30,20.90
2014,06,22,13,31,20.90
2014,06,22,13,32,20.90
2014,06,22,13,33,20.80
2014,06,22,13,34,20.80
2014,06,22,13,35,20.70
2014,06,22,13,36,20.70
2014,06,22,13,37,20.70
2014,06,22,13,38,20.70
2014,06,22,13,39,20.70
2014,06,22,13,40,20.80
2014,06,22,13,41,21.00
2014,06,22,13,42,21.10
2014,06,22,13,43,21.20
2014,06,22,13,44,21.30
2014,06,22,13,45,21.40
2014,06,22,13,46,21.50
2014,06,22,13,47,21.40
2014,06,22,13,48,21.40
2014,06,22,13,49,21.30
2014,06,22,13,50,21.10
2014,06,22,13,51,21.00
2014,06,22,13,52,20.80
2014,06,22,13,53,20.70
2014,06,22,13,54,20.60
2014,06,22,13,55,20.60
2014,06,22,13,56,20.60
2014,06,22,13,57,20.70
2014,06,22,13,58,20.90
2014,06,22,13,59,21.00
2014,06,22,14,00,21.10
2014,06,22,14,01,21.20
2014,06,22,14,02,21.20
2014,06,22,14,03,21.40
2014,06,22,14,04,21.50
2014,06,22,14,05,21.70
2014,06,22,14,06,21.70
2014,06,22,14,07,21.70
2014,06,22,14,08,21.70
2014,06,22,14,09,21.80
2014,06,22,14,10,22.00
2014,06,22,14,11,22.00
2014,06,22,14,12,22.10
2014,06,22,14,13,22.10
2014,06,22,14,14,22.20
2014,06,22,14,15,22.20
2014,06,22,14,16,22.30
2014,06,22,14,17,22.40
2014,06,22,14,18,22.40
2014,06,22,14,19,22.40
2014,06,22,14,20,22.40
2014,06,22,14,21,22.50
2014,06,22,14,22,22.60
2014,06,22,14,23,22.70
2014,06,22,14,24,22.80
2014,06,22,14,25,22.80
2014,06,22,14,26,22.80
2014,06,22,14,27,22.80
2014,06,22,14,28,22.90
2014,06,22,14,29,23.00
2014,06,22,14,30,22.90
2014,06,22,14,31,22.60
2014,06,22,14,32,22.50
2014,06,22,14,33,22.50
2014,06,22,14,34,22.50
2014,06,22,14,35,22.40
2014,06,22,14,36,22.30
2014,06,22,14,37,22.30
2014,06,22,14,38,22.20
2014,06,22,14,39,22.10
2014,06,22,14,40,22.20
2014,06,22,14,41,22.30
2014,06,22,14,42,22.20
2014,06,22,14,43,22.00
2014,06,22,14,44,21.90
2014,06,22,14,45,21.80
2014,06,22,14,46,21.80
2014,06,22,14,47,21.80
2014,06,22,14,48,21.70
2014,06,22,14,49,21.70
2014,06,22,14,50,21.70
2014,06,22,14,51,21.70
2014,06,22,14,52,21.70
2014,06,22,14,53,21.80
2014,06,22,14,54,21.80
2014,06,22,14,55,21.90
2014,06,22,14,56,21.90
2014,06,22,14,57,21.90
2014,06,22,14,58,21.90
2014,06,22,14,59,22.00
2014,06,22,15,00,22.10
2014,06,22,15,01,22.10
2014,06,22,15,02,22.10
2014,06,22,15,03,22.10
2014,06,22,15,04,22.00
2014,06,22,15,05,22.10
2014,06,22,15,06,22.10
2014,06,22,15,07,22.20
2014,06,22,15,08,22.20
2014,06,22,15,09,22.40
2014,06,22,15,10,22.50
2014,06,22,15,11,22.60
2014,06,22,15,12,22.60
2014,06,22,15,13,22.60
2014,06,22,15,14,22.60
2014,06,22,15,15,22.70
2014,06,22,15,16,22.80
2014,06,22,15,17,22.80
2014,06,22,15,18,22.70
2014,06,22,15,19,22.60
2014,06,22,15,20,22.50
2014,06,22,15,21,22.30
2014,06,22,15,22,22.30
2014,06,22,15,23,22.30
2014,06,22,15,24,22.40
2014,06,22,15,25,22.50
2014,06,22,15,26,22.70
2014,06,22,15,27,22.80
2014,06,22,15,28,22.90
2014,06,22,15,29,23.00
2014,06,22,15,30,23.10
2014,06,22,15,31,23.30
2014,06,22,15,32,23.40
2014,06,22,15,33,23.60
2014,06,22,15,34,23.60
2014,06,22,15,35,23.70
2014,06,22,15,36,23.90
2014,06,22,15,37,24.00
2014,06,22,15,38,24.00
2014,06,22,15,39,23.90
2014,06,22,15,40,23.90
2014,06,22,15,41,23.80
2014,06,22,15,42,23.70
2014,06,22,15,43,23.60
2014,06,22,15,44,23.60
2014,06,22,15,45,23.50
2014,06,22,15,46,23.40
2014,06,22,15,47,23.40
2014,06,22,15,48,23.40
2014,06,22,15,49,23.50
2014,06,22,15,50,23.60
2014,06,22,15,51,23.70
2014,06,22,15,52,23.80
2014,06,22,15,53,23.90
2014,06,22,15,54,23.90
2014,06,22,15,55,23.90
2014,06,22,15,56,23.80
2014,06,22,15,57,23.70
2014,06,22,15,58,23.70
2014,06,22,15,59,23.60
2014,06,22,16,00,23.70
2014,06,22,16,01,23.80
2014,06,22,16,02,23.80
2014,06,22,16,03,23.90
2014,06,22,16,04,24.00
2014,06,22,16,05,24.00
2014,06,22,16,06,24.00
2014,06,22,16,07,24.10
2014,06,22,16,08,24.20
2014,06,22,16,09,24.30
2014,06,22,16,10,24.30
2014,06,22,16,11,24.40
2014,06,22,16,12,24.40
2014,06,22,16,13,24.50
2014,06,22,16,14,24.50
2014,06,22,16,15,24.60
2014,06,22,16,16,24.60
2014,06,22,16,17,24.70
2014,06,22,16,18,24.70
2014,06,22,16,19,24.70
2014,06,22,16,20,24.70
2014,06,22,16,21,24.80
2014,06,22,16,22,24.60
2014,06,22,16,23,24.50
2014,06,22,16,24,24.30
2014,06,22,16,25,24.10
2014,06,22,16,26,24.00
2014,06,22,16,27,23.90
2014,06,22,16,28,23.90
2014,06,22,16,29,23.90
2014,06,22,16,30,24.00
2014,06,22,16,31,24.10
2014,06,22,16,32,24.10
2014,06,22,16,33,24.20
2014,06,22,16,34,24.30
2014,06,22,16,35,24.30
2014,06,22,16,36,24.30
2014,06,22,16,37,24.40
2014,06,22,16,38,24.30
2014,06,22,16,39,24.20
2014,06,22,16,40,24.10
2014,06,22,16,41,24.00
2014,06,22,16,42,23.90
2014,06,22,16,43,23.70
2014,06,22,16,44,23.70
2014,06,22,16,45,23.70
2014,06,22,16,46,23.60
2014,06,22,16,47,23.70
2014,06,22,16,48,23.70
2014,06,22,16,49,23.80
2014,06,22,16,50,23.90
2014,06,22,16,51,23.90
2014,06,22,16,52,24.00
2014,06,22,16,53,24.10
2014,06,22,16,54,24.10
2014,06,22,16,55,24.10
2014,06,22,16,56,24.10
2014,06,22,16,57,24.10
2014,06,22,16,58,24.20
2014,06,22,16,59,24.20
2014,06,22,17,00,24.30
2014,06,22,17,01,24.40
2014,06,22,17,02,24.40
2014,06,22,17,03,24.40
2014,06,22,17,04,24.40
2014,06,22,17,05,24.40
2014,06,22,17,06,24.50
2014,06,22,17,07,24.50
2014,06,22,17,08,24.50
2014,06,22,17,09,24.60
2014,06,22,17,10,24.60
2014,06,22,17,11,24.60
2014,06,22,17,12,24.70
2014,06,22,17,13,24.70
2014,06,22,17,14,24.80
2014,06,22,17,15,24.70
2014,06,22,17,16,24.70
2014,06,22,17,17,24.70
2014,06,22,17,18,24.70
2014,06,22,17,19,24.70
2014,06,22,17,20,24.70
2014,06,22,17,21,24.70
2014,06,22,17,22,24.70
2014,06,22,17,23,24.70
2014,06,22,17,24,24.60
2014,06,22,17,25,24.60
2014,06,22,17,26,24.50
2014,06,22,17,27,24.50
2014,06,22,17,28,24.50
2014,06,22,17,29,24.40
2014,06,22,17,30,24.50
2014,06,22,17,31,24.60
2014,06,22,17,32,24.60
2014,06,22,17,33,24.50